Theta_e
321 322 324 321 315 312 310 312 312 313 314 316 319 321 321 320 318 314 310 307 306 310 313 313 313 313 313 314 314 312 309 310 311 311 313 313 315 316 314 313 314 314 312 311 310 309 309 308 307 307 307 306 305 304 304 304 304 304 303 304 304 304 304 304 304 304 303 303 303 303 303 302 302 302 301 301 301 300 300 299 298 298 298 297 296 296
323 323 319 313 311 310 310 311 311 313 315 315 317 320 322 321 319 313 310 308 307 311 315 313 313 313 313 314 315 313 311 311 312 312 312 312 314 316 316 315 315 314 313 312 311 310 308 308 307 307 306 306 305 304 304 305 306 306 305 305 305 304 304 304 304 304 304 303 303 303 303 302 301 301 301 301 301 300 300 299 299 299 299 298 298 297
322 322 315 309 309 311 311 312 312 313 315 318 320 322 322 320 317 314 311 309 307 311 314 313 312 311 311 314 315 313 311 312 313 313 314 314 314 314 315 316 315 314 314 314 312 310 308 308 308 307 307 307 306 306 305 305 306 306 306 305 305 305 304 304 304 304 304 303 303 303 303 302 301 301 301 301 301 301 300 299 300 300 299 298 298 298
326 320 311 308 309 311 314 313 313 314 316 318 321 322 320 316 316 316 314 311 309 310 312 312 311 312 314 314 314 312 312 314 315 315 315 316 316 315 316 317 315 313 313 314 312 310 308 308 308 307 308 308 307 307 306 305 305 306 306 306 305 305 305 305 304 304 304 304 303 302 302 302 302 303 303 302 302 302 302 301 301 301 301 299 298 299
323 313 308 310 310 311 315 314 313 316 319 319 317 317 316 313 312 314 314 311 311 312 311 313 317 319 319 316 314 312 312 314 314 314 314 314 316 316 315 316 315 313 312 313 313 311 309 308 308 308 307 308 308 308 307 306 306 307 306 305 304 304 304 304 304 304 304 303 303 302 302 303 304 304 304 304 304 303 303 302 302 302 301 300 299 298
314 308 307 312 313 312 315 315 312 316 322 321 314 312 311 310 310 311 313 314 318 319 314 314 321 324 321 317 317 313 310 312 314 315 315 313 314 315 314 315 315 315 314 314 312 311 309 308 308 308 307 308 308 308 308 307 307 306 305 304 303 303 303 303 303 303 303 303 303 302 302 303 304 304 304 304 304 303 303 302 302 301 301 300 300 299
312 308 308 312 313 313 316 315 312 312 321 322 313 310 309 309 311 313 314 317 322 323 316 315 319 323 325 321 317 316 313 313 314 315 315 314 315 315 314 314 314 315 316 316 314 310 309 308 308 308 308 308 307 307 307 307 307 305 304 303 303 304 303 303 303 303 303 302 302 302 302 303 304 304 303 303 303 303 303 302 302 301 301 300 300 300
312 311 311 312 312 315 318 317 311 309 319 322 311 308 310 310 312 313 314 317 320 320 318 319 318 320 328 325 317 316 316 315 316 316 316 315 315 315 315 314 314 315 316 317 317 313 310 309 308 308 308 308 307 307 307 306 305 304 304 304 303 303 303 303 303 303 302 302 302 302 302 303 304 304 304 303 303 303 302 302 302 301 301 301 301 301
310 314 313 312 315 317 316 312 308 308 316 317 308 307 310 309 311 312 315 319 319 319 322 322 317 319 328 324 315 316 318 318 319 318 318 316 315 316 316 314 315 315 315 316 316 314 311 309 309 309 308 308 308 307 306 305 305 305 304 304 303 303 304 303 303 303 303 303 302 302 301 302 302 303 303 304 303 303 303 302 302 302 301 301 301 301
309 311 309 311 316 316 312 308 306 308 313 312 307 308 309 309 312 312 315 319 318 321 323 318 315 319 326 322 317 318 319 319 319 318 319 318 317 317 317 316 315 315 316 316 314 311 309 309 308 308 308 308 307 306 306 306 305 305 304 304 304 304 304 304 303 303 303 303 303 302 302 302 302 302 302 303 303 303 303 303 303 302 302 302 302 302
309 308 308 311 312 310 307 306 306 308 310 309 309 311 312 312 313 314 315 316 320 324 321 314 313 317 321 321 320 321 319 317 317 317 318 318 317 317 317 317 315 314 316 318 315 311 309 309 309 308 308 307 307 307 307 307 307 306 305 305 305 304 304 304 304 304 304 303 303 303 302 302 302 302 302 302 302 302 303 303 303 303 303 303 303 302
311 312 312 309 307 306 307 308 308 307 307 309 311 315 318 319 317 317 318 318 322 325 319 313 312 315 319 319 317 317 316 316 316 315 316 316 316 317 317 316 314 313 314 316 316 313 310 309 309 309 309 308 309 309 309 309 308 307 307 306 305 305 304 304 304 304 304 304 304 303 303 302 302 302 302 302 302 302 302 302 302 303 303 303 303 303
317 314 312 308 306 305 309 314 314 310 310 312 315 318 323 325 321 321 323 321 323 323 316 311 312 317 322 319 315 316 315 315 317 317 317 316 314 316 317 316 317 317 316 315 315 315 313 310 309 309 309 309 309 309 309 309 309 308 307 306 305 305 305 305 304 304 304 304 304 304 303 303 303 302 302 302 302 302 302 302 302 302 303 303 303 303
321 316 312 313 311 306 309 317 320 318 315 316 317 319 324 326 321 322 323 321 324 325 316 310 314 322 322 318 316 316 315 314 316 317 317 316 315 316 316 316 318 318 317 316 315 317 316 310 309 309 309 309 309 309 309 308 309 308 307 306 305 305 305 305 305 304 305 304 304 304 303 303 303 303 302 302 302 302 302 302 302 302 302 302 302 302
320 321 317 316 314 309 308 312 313 313 315 316 314 316 322 323 320 323 325 323 326 328 320 313 317 321 318 317 318 316 315 314 313 314 315 315 315 315 316 316 317 316 315 316 317 318 315 310 310 311 310 310 310 309 309 308 308 307 306 306 305 305 305 304 305 305 304 305 304 304 304 303 303 303 303 303 302 302 302 302 302 302 302 302 302 302
320 323 315 309 309 308 309 309 306 310 317 315 313 317 321 319 318 322 323 321 321 326 326 321 323 323 317 318 318 314 314 314 312 314 314 315 315 315 318 318 318 318 317 317 318 319 316 311 311 311 310 310 310 309 309 308 307 307 306 306 305 305 305 304 304 304 304 304 304 304 304 304 303 303 303 303 303 302 302 302 302 302 302 302 302 302
320 323 312 307 309 306 306 307 304 309 316 316 316 319 316 311 315 322 322 318 317 324 327 322 322 324 321 320 318 315 315 314 313 314 314 316 316 317 320 322 321 321 319 319 318 318 315 311 310 310 310 310 309 309 308 307 307 307 306 305 305 305 304 304 304 304 304 304 304 304 304 304 304 304 303 303 303 303 302 302 302 302 302 302 302 302
316 321 315 310 314 308 303 305 305 305 309 317 319 315 312 311 314 318 322 323 322 324 323 319 318 321 321 320 317 316 316 315 314 314 314 316 317 318 321 323 321 320 320 319 317 315 312 310 310 310 309 309 308 308 307 307 306 306 305 305 304 304 304 304 304 304 304 304 304 304 304 304 304 304 304 303 303 303 302 302 302 302 302 302 302 302
313 321 318 310 313 310 303 307 313 309 306 312 315 310 312 319 320 320 321 324 324 323 324 323 319 320 323 321 318 318 318 318 316 315 315 316 317 318 319 320 319 319 319 318 317 316 313 310 309 309 308 307 307 307 306 306 306 305 305 305 304 304 304 304 304 304 304 304 304 304 304 304 304 304 304 303 303 303 302 303 303 302 302 302 302 302
312 318 320 311 309 311 309 311 319 319 310 308 311 310 311 316 319 320 319 321 324 325 328 329 324 323 326 323 319 319 319 318 318 318 318 316 316 316 316 318 319 318 318 317 317 317 312 309 308 308 308 307 306 306 306 305 306 305 305 305 304 304 304 304 304 304 304 304 304 304 304 304 304 304 304 304 303 303 303 303 303 303 303 302 302 302
312 316 320 314 308 312 316 313 316 319 315 313 315 314 314 313 313 316 317 317 320 324 325 327 329 328 324 319 319 318 319 320 320 321 320 317 316 316 316 317 318 317 318 316 316 316 311 308 309 308 307 307 307 306 306 306 306 305 305 305 305 305 304 304 304 304 304 304 304 304 304 304 304 304 304 304 304 303 303 303 303 303 303 303 302 302
314 315 317 318 315 319 319 308 305 308 309 313 315 315 315 314 315 320 321 316 316 320 322 323 328 330 322 317 318 316 317 320 321 321 321 317 315 315 316 316 316 317 318 316 316 314 310 308 309 308 308 308 307 307 306 306 306 305 305 305 305 305 305 304 304 304 304 304 304 304 304 304 304 303 304 304 303 303 303 303 303 303 303 303 303 303
310 312 316 320 319 316 310 302 301 303 302 306 310 311 312 312 316 323 325 321 317 316 317 317 322 327 322 316 315 315 316 317 316 318 320 317 315 315 316 316 317 317 316 316 315 312 309 309 309 308 308 308 307 307 307 306 306 306 305 305 305 305 304 304 304 304 304 303 303 303 303 303 303 303 303 303 303 303 303 303 303 303 303 303 303 303
308 312 317 320 317 310 305 301 301 301 302 308 311 309 310 312 315 317 318 319 319 319 320 320 323 329 325 318 315 315 316 316 316 316 318 318 317 316 317 316 316 316 316 316 315 311 308 309 309 309 309 308 308 308 307 307 306 306 306 305 305 305 304 304 304 303 303 303 302 302 302 302 302 302 303 303 303 303 303 303 303 303 303 303 303 303
313 315 316 320 320 316 313 311 310 307 307 312 314 310 310 312 313 314 314 314 319 324 324 325 330 334 327 322 319 316 316 319 319 317 317 319 321 319 317 315 315 316 316 316 316 314 313 311 309 309 309 309 308 308 307 307 307 306 306 306 305 305 305 304 304 303 303 302 302 301 301 301 301 302 302 302 302 303 303 303 303 303 303 303 303 303
313 314 315 319 320 319 320 320 319 317 313 313 313 311 311 313 314 316 316 316 321 324 322 325 331 328 320 321 321 317 316 318 318 317 316 318 320 319 317 317 317 316 316 316 316 316 316 312 310 309 309 309 308 308 307 307 307 307 307 306 305 305 304 304 304 303 302 301 301 301 301 301 301 301 301 302 302 302 302 302 303 303 303 303 303 302
310 312 314 317 320 321 322 321 318 316 313 314 316 315 313 313 314 315 316 319 323 321 320 323 323 318 316 316 316 315 316 317 317 317 315 315 315 316 316 316 316 315 316 316 316 317 317 315 312 309 309 309 308 308 307 307 307 307 306 305 304 303 303 303 303 302 301 300 300 300 300 300 301 301 301 301 301 301 301 301 301 301 301 301 301 301
309 314 315 315 318 319 317 316 316 314 312 314 316 318 317 313 313 314 315 319 322 319 317 320 320 318 317 315 314 315 315 315 316 315 313 313 313 314 314 314 314 315 315 316 316 317 317 316 313 308 308 308 307 306 306 305 305 306 305 303 302 302 302 302 301 300 300 300 300 300 300 300 300 300 300 301 300 300 300 300 300 300 300 300 300 300
310 315 314 312 314 316 313 313 315 313 313 313 313 317 318 316 314 314 313 315 319 318 316 318 319 318 315 313 313 313 312 313 314 313 313 313 313 314 314 314 315 315 315 315 316 315 314 314 311 307 306 306 305 304 304 304 304 303 302 302 302 302 301 300 300 299 299 300 300 300 300 299 300 300 300 300 300 300 300 299 299 299 299 299 299 299
308 315 313 308 311 314 314 314 312 311 312 312 312 314 316 316 315 313 313 312 314 316 315 315 315 314 312 311 311 310 312 313 313 313 314 312 314 316 315 314 314 314 314 314 314 314 313 311 308 305 305 305 303 303 303 302 302 302 302 302 301 301 300 299 299 299 299 299 299 299 299 299 299 299 299 299 299 299 299 299 299 299 299 299 299 298
305 314 313 307 310 315 313 312 311 310 310 311 311 312 312 314 314 312 311 311 311 313 313 312 313 312 310 309 310 312 313 313 313 315 315 314 315 315 315 314 313 313 313 313 313 312 312 310 305 303 303 303 303 302 302 301 301 301 301 301 300 300 299 299 299 299 299 299 299 299 299 299 300 299 299 299 299 299 299 299 299 298 298 298 298 298
303 310 310 307 313 317 311 310 311 311 311 312 312 312 310 310 312 312 312 311 311 312 311 310 312 312 309 310 312 314 314 314 316 317 317 318 317 314 313 313 313 313 313 313 312 312 311 309 305 302 302 302 302 301 301 301 301 300 300 300 299 299 299 298 299 299 299 299 299 299 299 299 299 299 299 299 299 298 298 298 298 298 298 298 298 298
305 309 311 311 315 316 310 308 310 310 312 316 318 319 315 311 310 310 311 312 311 310 310 312 313 311 310 312 313 315 315 314 315 316 316 317 317 315 313 311 311 313 313 312 311 310 308 306 304 302 302 302 301 301 300 300 300 299 299 299 298 298 298 298 298 298 298 299 299 299 298 298 298 298 298 298 297 297 297 297 297 297 297 297 297 297
305 307 312 312 315 316 312 310 311 311 314 318 323 323 321 318 315 312 312 313 311 310 311 311 311 310 311 312 312 314 314 312 313 314 314 313 313 313 312 311 312 312 311 310 309 307 305 303 302 302 302 301 300 300 300 299 299 299 298 298 298 298 298 298 298 298 298 298 298 298 297 297 297 297 297 297 296 296 296 296 296 296 296 296 296 296
306 307 310 311 312 314 314 312 312 315 317 317 318 317 317 318 317 314 313 312 310 310 311 309 309 310 309 309 310 311 312 312 313 315 315 312 310 310 312 314 313 311 309 308 308 306 303 302 302 301 300 300 299 299 299 299 298 298 298 297 297 297 297 297 298 297 297 297 297 296 296 296 296 296 296 296 296 295 295 295 295 296 295 296 296 296
307 308 309 311 312 313 313 313 314 316 315 314 314 312 309 311 312 310 313 318 315 311 311 310 309 308 309 309 309 310 312 313 313 314 313 311 310 312 314 314 311 309 308 306 305 304 302 301 301 300 300 299 299 299 298 298 298 297 297 297 297 297 297 297 296 296 296 295 295 295 295 295 295 295 295 295 295 295 295 295 295 295 295 295 295 295
303 308 310 311 313 313 312 315 316 313 313 316 316 312 308 311 312 310 313 321 319 312 310 311 310 310 310 309 310 311 311 311 312 315 314 313 314 314 312 309 308 307 305 303 302 301 300 300 300 299 299 299 298 298 297 297 297 297 296 296 296 296 296 295 295 294 294 293 293 293 294 294 294 294 294 294 294 294 294 294 294 294 294 294 294 294
300 306 308 310 314 312 310 314 315 313 317 322 318 312 309 311 312 311 311 314 316 315 314 313 313 314 312 310 313 314 311 309 312 313 312 313 315 311 308 305 304 303 302 301 301 300 299 299 299 298 298 298 297 297 297 296 296 296 296 296 295 295 294 293 292 292 291 291 291 291 292 292 292 292 293 293 293 293 293 293 293 293 293 293 293 293
299 302 304 308 313 311 310 313 314 312 316 320 317 313 310 309 310 311 312 316 318 319 318 316 316 318 315 314 316 315 310 310 311 310 310 310 309 307 307 305 302 301 301 299 298 298 298 298 298 297 297 296 296 296 296 296 295 295 295 295 294 293 292 291 290 290 289 289 289 289 290 290 291 292 292 292 292 292 292 292 292 292 293 293 293 293
300 302 304 306 309 310 310 312 313 310 312 317 317 313 310 308 309 308 313 321 321 317 316 316 318 318 317 319 319 314 311 310 310 309 310 308 305 304 304 302 300 299 298 296 296 297 297 297 297 296 296 295 295 295 295 295 295 294 294 292 291 290 289 288 287 286 286 286 287 287 288 289 290 291 291 292 292 291 291 291 291 291 291 291 292 292
301 304 305 304 307 309 309 311 311 309 312 319 319 314 309 308 308 308 313 320 321 319 319 317 317 319 320 321 319 314 313 312 310 309 309 307 304 302 300 298 298 297 295 294 294 295 296 296 295 294 294 295 295 294 294 293 292 291 290 288 287 286 285 284 283 283 284 284 285 286 287 288 289 290 290 291 290 290 290 290 290 289 290 290 291 291
305 305 305 304 306 307 307 309 310 310 313 316 314 310 308 309 312 315 316 316 316 318 318 317 317 319 319 319 316 313 313 312 310 309 307 305 303 299 297 296 296 295 294 293 293 293 294 294 293 292 293 293 293 293 293 291 288 286 286 285 284 283 282 281 281 282 282 283 284 285 286 286 287 288 289 289 289 289 289 288 287 287 288 289 289 289
309 309 309 305 305 308 308 308 309 313 316 312 307 306 306 310 318 320 316 315 317 316 314 313 315 315 314 313 312 310 310 309 308 306 303 300 298 297 295 295 295 294 292 291 291 292 292 292 291 291 291 292 292 292 291 288 285 284 284 283 282 281 280 280 280 281 281 281 283 284 284 284 285 286 287 287 288 288 287 285 284 285 285 286 286 286
308 310 314 310 308 311 312 308 309 316 315 308 306 310 310 309 312 314 312 313 315 313 310 310 310 309 309 309 308 306 306 305 303 301 299 297 296 295 295 294 293 292 290 288 288 289 289 289 290 290 291 291 291 291 290 287 284 283 283 282 281 280 280 279 280 280 280 280 281 282 282 282 282 284 284 285 287 287 286 283 283 283 283 283 283 284
309 310 313 313 310 312 313 312 312 316 314 307 307 312 311 307 308 309 310 310 310 308 308 307 306 305 305 305 305 303 301 300 299 298 296 295 295 294 294 293 291 288 286 285 285 285 286 287 288 289 290 291 290 290 289 287 285 283 283 282 281 280 280 279 279 279 279 280 280 281 281 281 281 281 282 283 285 285 284 283 282 282 282 282 282 282
308 307 307 310 312 310 309 310 310 311 312 310 307 308 309 309 309 309 308 308 306 304 302 301 300 299 300 301 301 298 297 298 297 296 295 294 294 293 293 291 288 285 284 283 283 282 283 283 284 285 286 288 289 287 287 286 285 283 282 282 281 280 280 279 279 279 278 279 279 280 280 280 280 280 280 281 282 283 283 282 282 281 281 281 281 281
307 306 305 309 311 309 308 310 309 308 310 310 308 307 308 308 306 305 304 303 300 297 296 296 296 295 296 297 297 295 295 296 295 294 293 293 292 292 291 289 286 285 284 284 283 282 282 281 282 282 282 285 286 284 284 284 284 283 282 282 281 280 280 279 279 278 278 278 278 278 278 278 279 279 279 279 280 281 281 281 281 281 280 280 280 280
308 305 306 308 308 306 307 309 308 307 308 307 306 305 304 303 301 299 297 297 296 294 292 292 291 291 292 293 293 293 292 292 292 292 291 289 288 287 286 285 284 283 283 282 282 282 282 281 281 281 280 281 282 281 281 282 282 282 282 282 281 280 279 279 278 277 277 277 277 277 277 277 277 277 278 278 278 279 280 280 280 280 279 279 279 278
309 306 307 309 306 305 306 305 305 306 306 306 305 301 298 298 297 295 294 294 294 293 291 288 288 288 288 289 290 290 290 290 291 289 286 283 283 283 282 282 282 281 281 280 280 280 280 280 281 281 281 280 280 279 279 279 279 279 281 281 280 279 278 277 277 276 276 276 275 275 275 276 276 276 276 276 276 277 277 278 279 279 279 278 277 277
306 306 308 307 305 305 305 304 306 307 306 304 300 296 295 295 294 292 290 289 289 289 289 287 286 285 284 285 286 287 287 288 288 287 283 281 281 281 281 280 280 280 280 279 278 278 278 278 279 280 280 280 279 278 278 278 278 277 279 280 279 277 277 276 276 275 275 274 274 274 274 274 274 274 275 275 275 275 275 275 276 276 277 277 276 276
304 305 306 305 304 305 305 304 306 307 305 299 294 293 293 292 290 288 287 286 286 286 285 285 283 282 282 282 282 283 283 284 284 284 283 282 282 281 281 280 280 280 279 278 277 277 276 277 278 279 278 277 277 277 277 277 276 277 278 278 277 276 275 274 274 274 273 273 273 273 273 273 273 273 273 274 273 273 273 274 274 274 275 275 275 275
Wind_Speed
1 5 5 3 4 4 4 4 4 4 5 4 4 4 4 2 1 2 2 1 3 3 5 6 6 9 8 8 8 5 9 7 7 6 6 6 5 5 5 6 6 5 3 2 1 5 7 7 7 8 8 9 10 12 13 13 13 13 13 13 13 13 12 11 12 11 10 10 10 10 9 9 9 10 10 12 12 11 14 15 12 10 10 9 9 9
2 5 4 3 3 3 3 3 4 4 5 4 3 5 3 1 2 2 3 1 2 2 4 4 7 10 8 9 7 5 8 7 7 6 6 7 7 6 6 6 5 3 1 2 4 7 8 8 7 8 9 9 11 11 11 11 11 11 11 12 13 13 12 11 12 12 12 11 11 11 11 12 13 13 12 12 11 11 15 17 14 11 9 9 10 9
5 4 2 3 2 3 3 3 4 3 4 4 4 4 3 3 3 2 2 2 0 0 4 7 8 11 10 8 4 7 6 5 5 4 3 4 5 6 6 6 4 2 2 2 4 5 6 8 8 7 8 8 10 10 10 10 10 11 11 12 12 11 11 10 11 12 13 13 12 12 14 15 15 14 13 12 12 12 13 14 14 12 10 10 10 9
3 2 1 2 3 4 2 1 4 3 1 3 3 2 2 4 3 1 0 4 5 3 4 6 7 9 8 3 2 4 3 1 2 1 1 1 3 2 2 3 4 3 3 4 4 3 2 5 7 8 9 8 9 9 10 10 10 10 10 11 10 10 10 10 11 11 13 14 13 14 15 14 14 13 11 11 11 10 9 10 12 12 12 12 12 11
4 1 2 3 3 3 2 2 5 3 1 3 4 3 1 2 2 3 4 8 7 2 3 6 5 5 2 2 1 1 3 3 1 2 3 4 4 3 2 0 3 4 4 3 4 3 3 3 4 6 6 6 8 9 10 9 9 10 11 11 11 11 12 11 11 11 12 13 14 14 13 12 11 11 10 10 9 7 7 8 9 11 13 15 15 14
3 1 1 3 3 2 2 2 3 2 2 1 2 2 1 2 3 5 7 7 4 1 2 3 3 4 3 2 3 3 1 3 4 4 6 6 5 5 4 4 5 5 5 4 4 4 3 4 4 5 5 6 8 9 9 9 10 11 12 12 11 11 11 11 11 11 12 13 13 13 12 13 12 12 12 10 9 8 8 9 9 10 14 16 17 16
2 2 2 2 2 3 1 1 1 1 2 1 2 2 1 2 3 4 6 4 2 2 3 3 3 3 6 2 2 3 2 4 4 5 7 6 6 6 6 6 5 5 6 5 5 4 4 5 6 7 7 7 8 8 8 10 12 13 12 12 11 11 10 10 11 11 12 12 13 13 13 13 14 15 15 13 11 11 12 12 12 13 14 15 16 16
1 2 3 1 1 2 1 1 1 2 2 1 3 2 2 2 3 3 4 2 1 2 3 4 3 1 5 4 1 2 1 3 5 7 7 7 7 6 6 6 6 6 6 6 5 5 6 7 6 7 7 7 7 8 10 13 14 14 13 12 11 12 11 11 11 11 12 12 12 12 13 14 15 16 16 15 14 14 13 14 14 14 13 13 14 15
2 1 1 1 1 1 1 1 2 2 1 0 1 1 2 2 2 3 2 4 3 2 3 5 3 1 5 4 1 1 1 3 5 5 4 5 6 7 7 6 6 6 5 6 6 6 6 6 6 7 7 8 10 11 13 14 14 14 13 13 13 13 13 13 12 12 12 12 12 13 14 15 16 16 16 15 15 15 14 14 15 15 14 13 13 14
0 1 1 2 0 1 0 1 2 1 1 0 1 1 1 1 2 2 2 4 2 3 1 5 3 1 4 5 2 1 2 2 1 3 3 3 2 4 6 6 6 5 5 5 4 5 6 6 7 8 9 11 13 14 14 14 13 13 13 13 14 15 15 14 13 13 13 13 13 14 15 16 17 17 16 15 15 16 15 15 16 15 14 13 12 13
2 1 1 1 1 1 1 1 1 1 2 2 1 1 1 2 2 2 3 2 2 2 3 4 3 2 2 4 1 1 1 1 3 4 4 4 2 1 3 3 4 5 5 6 5 6 7 8 9 9 11 14 14 14 14 14 13 13 13 13 14 15 15 15 15 14 14 14 14 15 15 16 17 17 17 17 17 17 16 16 16 15 14 12 12 13
2 0 1 1 1 1 1 1 1 1 2 2 1 1 1 1 1 1 2 1 3 1 3 3 3 2 1 4 1 3 3 4 4 3 5 4 2 2 2 2 3 4 3 4 4 5 5 7 9 10 12 14 13 12 12 13 13 13 13 13 15 16 16 15 15 15 16 16 15 16 16 16 17 17 17 18 19 18 17 17 16 15 14 13 13 13
2 0 1 1 1 0 1 1 1 1 2 2 2 2 2 2 2 2 2 1 1 2 3 1 2 1 4 5 2 4 4 4 4 4 5 3 2 2 1 1 2 2 2 2 2 3 5 6 9 11 13 14 14 13 13 13 13 13 13 14 15 18 17 15 15 15 16 17 17 17 17 18 17 17 18 18 19 19 19 18 17 16 15 15 14 14
1 1 1 1 1 1 1 2 1 2 2 2 1 2 2 2 2 2 3 2 1 3 3 0 2 2 3 4 3 5 5 4 4 4 4 3 1 1 3 3 4 5 4 4 4 5 5 7 11 13 15 16 16 15 13 12 12 13 14 14 16 19 18 15 15 15 17 18 19 19 19 19 19 18 18 18 19 19 19 19 19 18 17 17 17 16
0 1 1 2 1 2 1 1 1 2 3 2 1 2 2 3 2 0 1 1 2 4 3 2 1 2 2 2 3 6 5 4 4 3 3 1 1 2 3 4 5 6 6 5 5 5 6 8 11 12 13 14 15 15 14 13 13 13 14 15 17 19 18 16 15 15 17 18 19 19 20 20 20 20 20 19 19 19 20 20 20 20 20 20 20 19
2 1 1 1 2 2 1 1 0 1 2 2 1 2 1 1 1 1 1 2 1 2 2 1 2 4 3 1 3 5 3 2 3 3 2 2 3 2 3 5 5 5 5 3 2 4 6 8 10 11 12 13 14 14 14 14 14 14 16 17 18 19 18 17 16 16 17 18 19 19 20 20 20 21 21 21 21 20 20 20 21 22 22 22 22 22
1 1 1 1 1 1 2 1 1 1 1 1 2 1 2 0 2 2 1 1 2 1 3 2 3 4 2 2 1 2 2 2 3 3 3 4 4 3 4 6 5 4 2 2 3 4 6 8 10 11 13 13 14 15 15 15 15 15 17 18 19 19 19 18 17 17 18 18 18 19 19 20 20 21 22 23 23 22 21 21 22 23 23 23 23 23
0 2 2 1 1 1 1 2 1 1 1 1 1 2 2 1 2 2 0 2 1 1 3 1 2 4 3 3 3 1 3 3 4 4 4 3 2 3 5 5 2 2 4 4 5 5 6 8 11 12 13 14 15 15 16 16 16 16 17 19 19 20 19 19 18 18 18 18 19 20 20 20 20 21 22 23 23 23 22 22 23 23 24 24 23 23
1 1 2 2 1 0 1 2 2 1 1 2 1 1 0 2 0 0 1 1 1 2 4 3 2 3 3 4 3 4 5 6 6 5 2 3 3 1 2 3 3 4 5 5 5 5 6 9 11 13 14 15 15 15 16 16 16 17 17 17 18 19 19 19 18 19 19 19 20 21 21 21 21 21 21 22 23 23 24 24 24 24 25 25 24 24
1 1 2 3 1 0 1 1 0 1 1 1 2 2 1 2 1 1 1 1 1 1 4 4 4 3 4 4 3 7 8 7 7 6 4 5 4 4 4 4 3 4 3 5 5 5 6 8 11 12 13 14 15 15 15 15 15 16 17 17 17 18 19 19 19 19 20 20 20 20 21 22 21 21 21 21 22 23 24 25 25 25 26 26 26 26
1 2 2 3 2 1 1 1 1 1 1 0 1 1 0 1 1 0 1 1 2 1 2 3 4 5 5 1 2 3 5 7 7 7 6 5 3 3 3 2 2 3 4 4 5 5 6 9 11 11 12 12 13 13 14 14 15 16 17 17 17 18 19 20 20 20 20 20 20 21 21 22 22 22 22 22 22 23 25 25 25 26 26 26 26 26
1 1 1 2 2 1 1 1 1 1 0 1 2 2 1 1 1 1 1 1 1 1 2 1 4 7 5 2 4 3 3 4 5 6 6 3 1 3 3 2 2 3 5 5 5 5 6 8 10 12 12 12 12 12 13 14 15 16 17 17 17 18 19 20 20 20 20 20 20 20 21 22 22 22 23 23 24 25 26 26 27 26 26 26 27 26
1 1 1 2 2 1 1 1 0 2 1 1 1 1 1 0 2 3 1 2 0 1 1 2 2 7 6 2 2 3 3 3 3 4 4 2 2 4 4 3 2 3 4 5 5 6 7 8 10 11 11 12 12 13 14 15 16 16 17 18 18 18 19 20 20 19 19 20 20 20 21 21 21 21 22 24 25 26 27 28 28 27 27 28 28 27
1 1 1 2 1 1 0 1 2 3 1 0 2 1 0 0 2 3 3 2 1 2 2 2 2 7 6 2 1 1 1 1 2 2 5 4 4 5 5 3 2 3 4 5 5 6 7 8 9 9 9 10 12 14 16 18 18 18 18 18 19 20 20 20 20 20 20 21 22 22 22 22 22 21 22 23 24 26 26 27 28 27 27 28 28 28
1 1 1 1 3 3 3 1 1 2 1 2 2 2 2 3 4 2 1 2 1 5 7 4 4 7 4 1 2 3 2 3 5 6 6 5 5 6 4 3 2 3 4 5 6 6 6 7 8 8 9 10 12 14 16 18 19 19 19 18 19 20 21 22 21 20 21 22 23 24 24 24 23 22 23 23 23 24 25 25 26 26 26 26 27 28
0 0 2 2 1 2 2 1 1 0 1 2 1 2 2 4 5 2 1 2 2 5 6 5 5 6 5 3 4 4 2 4 6 4 3 4 6 6 4 2 2 3 4 6 6 6 6 6 7 8 10 11 13 14 16 18 19 18 18 18 19 20 21 22 21 20 22 23 24 25 25 25 24 24 24 24 23 23 24 24 24 24 24 24 25 26
1 1 3 4 5 5 4 3 2 1 1 2 3 4 4 4 5 3 2 3 4 3 4 7 8 9 12 11 9 7 5 6 7 5 4 3 4 5 4 2 2 4 5 6 5 5 6 6 6 8 11 12 13 15 17 19 19 18 19 21 22 22 21 20 20 21 24 25 24 25 25 24 24 24 24 23 23 23 23 23 23 23 23 23 23 24
1 2 4 5 7 6 2 2 3 3 3 5 4 5 7 6 6 6 6 6 4 1 6 7 6 8 13 14 11 8 6 6 7 8 7 6 6 6 5 3 3 4 5 5 4 4 4 4 6 8 11 13 15 17 19 19 19 18 20 23 24 22 21 21 21 23 25 25 25 25 25 25 24 23 23 23 23 23 23 23 23 23 23 22 22 23
2 3 2 1 5 7 5 6 5 5 5 6 6 7 8 8 9 11 12 10 5 4 9 7 4 8 14 15 13 10 7 6 7 8 7 6 6 6 4 2 3 5 5 5 5 3 3 5 6 8 12 15 17 19 19 19 19 20 22 23 23 22 23 23 24 25 25 25 25 25 25 25 25 24 24 24 23 24 24 24 24 24 24 23 23 24
2 2 1 1 4 8 7 7 5 5 4 5 7 9 8 10 13 13 13 12 8 9 14 13 12 14 18 18 14 10 8 6 7 7 6 6 6 6 4 2 3 4 5 4 4 4 4 5 7 10 13 16 17 18 18 18 20 21 22 23 23 24 25 25 26 25 25 26 26 26 26 26 25 26 26 26 25 25 26 26 26 26 26 26 26 26
0 2 1 2 3 6 4 2 0 3 4 5 9 10 10 11 11 10 11 9 7 11 15 14 12 14 18 16 10 8 8 6 6 7 7 6 5 4 3 3 2 4 5 5 4 4 5 6 8 10 12 12 14 15 16 18 19 20 21 22 24 25 26 26 26 25 26 26 27 27 27 27 27 27 28 28 28 28 28 29 29 29 29 29 29 29
1 1 1 3 1 5 3 3 1 4 4 7 12 13 13 11 8 8 9 7 9 11 10 7 7 11 13 9 5 5 6 4 6 7 6 6 4 2 2 3 3 5 5 5 4 5 6 6 7 8 10 12 13 15 17 18 19 19 20 22 23 24 25 25 25 25 26 26 27 27 28 28 28 29 29 30 30 30 30 30 30 31 30 30 30 31
3 2 1 2 1 4 3 3 3 3 4 6 9 10 11 10 8 8 7 9 11 9 5 5 8 10 7 5 5 6 5 4 6 6 5 6 6 5 4 3 4 6 5 3 4 6 6 6 7 8 11 13 14 16 17 18 18 19 20 22 23 23 24 24 24 25 25 25 26 27 28 28 29 30 30 31 31 32 32 32 31 31 30 30 31 30
4 3 1 1 1 3 5 4 3 3 5 6 5 6 7 9 12 11 8 10 12 9 7 9 10 8 7 6 6 7 7 6 6 6 7 6 6 5 5 4 5 4 2 4 5 5 5 6 7 9 10 13 15 16 16 17 18 19 21 23 23 23 23 23 23 23 24 26 27 27 28 29 29 29 30 30 31 32 32 32 32 31 31 31 31 31
5 4 1 1 2 2 2 4 4 4 6 6 4 4 3 5 9 10 9 11 12 12 14 14 13 12 12 10 8 8 9 7 5 6 8 7 6 5 6 6 4 1 4 5 5 4 5 7 8 9 11 14 16 16 16 17 18 20 22 23 23 23 24 23 23 24 26 28 28 29 30 30 30 30 30 31 31 31 31 31 31 32 32 31 31 31
5 5 2 1 2 1 2 1 3 6 7 7 5 3 0 3 4 3 7 11 11 12 14 14 15 15 12 11 10 8 6 4 4 6 10 10 6 6 5 4 1 3 4 5 5 5 7 9 10 11 13 14 15 15 16 18 19 20 21 21 22 23 24 24 26 28 29 30 31 32 32 32 31 31 31 32 32 32 32 32 32 32 32 31 31 31
2 3 1 1 2 2 1 3 4 6 9 8 5 1 2 2 4 5 2 7 10 10 9 10 12 13 11 11 10 5 1 3 5 7 7 4 2 5 5 4 5 6 6 7 8 9 10 12 12 13 14 14 15 17 18 19 19 19 19 21 22 23 24 26 28 29 30 31 31 32 33 33 33 32 32 32 32 32 33 33 34 34 33 33 32 32
1 2 3 2 2 2 1 4 4 3 5 6 5 4 2 3 4 5 1 5 9 10 7 9 10 11 9 8 5 2 4 4 5 6 2 4 6 6 5 6 9 11 11 11 12 13 15 15 15 15 16 17 19 20 20 19 19 19 21 22 23 24 26 27 28 28 30 30 30 31 32 32 32 32 32 32 32 32 33 34 35 35 35 35 34 34
2 1 2 2 1 1 3 3 3 4 6 6 6 5 2 3 4 4 4 5 7 6 3 7 8 8 7 6 3 5 4 4 6 5 2 4 5 6 6 8 12 15 17 19 20 20 19 18 18 18 20 22 23 22 21 20 21 22 23 23 24 25 26 26 27 27 28 29 30 31 31 31 31 31 31 31 31 31 32 33 33 34 35 35 34 35
2 1 1 1 3 3 3 4 4 4 5 5 6 4 3 4 4 5 4 7 5 3 0 5 4 5 5 4 5 5 2 5 5 3 2 5 6 7 9 11 13 17 21 24 25 23 21 21 21 22 24 24 23 22 22 21 22 24 24 24 25 25 25 25 26 27 28 29 30 30 30 30 30 30 30 30 30 30 31 31 31 32 33 34 34 34
1 2 3 3 4 4 4 5 5 3 5 6 6 6 6 4 3 2 5 7 3 2 2 4 3 4 4 3 3 3 5 4 2 2 2 5 7 9 14 18 20 22 24 25 27 25 22 22 23 24 24 23 22 23 23 22 22 23 23 23 24 24 24 26 27 28 29 30 29 29 30 30 30 30 29 28 30 31 30 29 31 32 32 32 32 32
2 2 2 3 3 4 5 5 4 5 7 6 5 5 4 3 2 5 7 3 4 3 2 1 2 3 3 2 3 3 3 5 6 7 7 9 9 10 15 20 21 23 24 26 28 26 22 21 22 23 23 22 23 24 22 22 23 22 21 23 23 23 24 27 28 28 29 29 29 29 30 30 31 30 29 30 32 31 29 30 32 33 33 32 32 32
6 4 3 4 4 3 3 3 2 5 6 7 9 4 1 4 5 4 2 2 3 3 3 3 3 3 3 4 4 5 6 7 8 8 9 10 11 11 15 18 19 20 23 26 27 26 23 21 21 22 22 21 23 23 21 21 22 21 21 22 22 23 26 28 28 29 29 29 29 29 30 31 32 31 30 32 33 30 29 32 34 34 33 33 34 34
5 6 3 4 4 4 4 5 6 6 6 8 9 5 6 9 7 1 4 4 3 3 4 5 4 4 5 5 5 6 7 7 8 9 10 11 10 12 15 18 20 21 23 24 25 24 24 22 21 22 22 21 23 22 20 21 23 22 20 20 22 26 29 29 29 30 30 30 30 29 30 32 32 32 32 34 33 30 30 33 34 33 33 33 34 34
6 6 4 3 5 5 6 7 6 4 4 7 8 7 6 7 5 3 4 5 5 4 4 4 6 7 7 7 7 7 7 7 8 9 10 10 10 11 14 17 21 22 23 24 25 25 24 22 21 22 22 21 23 23 21 22 24 23 21 22 25 28 30 30 31 31 32 32 31 30 32 33 32 33 34 34 33 31 31 32 32 31 31 33 33 32
5 2 2 1 3 4 6 7 6 4 4 8 10 8 5 5 4 4 5 6 4 5 6 6 6 7 8 8 8 8 7 7 8 10 10 9 9 12 15 17 20 22 22 24 25 25 24 24 23 24 23 22 23 25 23 23 24 23 22 24 27 28 30 31 32 32 33 33 32 32 32 33 33 33 34 34 33 33 32 32 32 31 32 32 31 31
3 3 2 3 3 4 5 5 5 5 7 6 5 6 6 6 6 5 6 5 7 8 9 9 8 9 10 10 10 10 8 9 9 9 9 9 9 11 14 16 19 21 21 22 23 24 24 24 24 24 24 22 23 25 25 24 24 25 25 26 27 28 30 31 31 31 32 32 32 32 32 32 33 33 34 34 33 33 33 33 31 32 33 32 31 32
2 4 4 5 6 7 8 4 1 5 9 4 2 4 5 6 7 9 9 8 9 10 11 12 12 10 9 10 10 10 10 10 10 9 9 9 10 13 16 18 19 21 21 22 23 23 23 23 22 22 22 22 23 26 27 26 26 27 27 27 27 28 29 30 30 30 31 31 31 31 31 31 32 33 33 34 33 32 32 32 32 32 32 31 31 33
3 3 4 4 6 8 10 7 4 8 10 4 6 7 7 6 7 10 10 10 10 11 12 14 15 13 12 11 10 10 11 11 10 11 11 10 11 14 17 18 19 19 20 21 23 23 23 22 22 21 21 21 23 26 27 26 27 29 27 25 25 27 29 30 30 29 30 31 31 31 31 31 32 33 34 33 33 33 34 34 34 34 35 35 35 34
4 4 3 2 6 9 7 4 3 5 4 3 7 8 7 7 8 10 11 12 12 11 10 12 14 15 17 16 13 11 10 10 11 12 12 11 12 14 15 16 16 16 17 19 21 23 24 23 22 21 21 22 24 26 26 25 28 30 26 23 25 28 29 30 30 29 29 30 31 32 32 32 33 34 34 32 33 36 38 39 37 35 34 37 40 39
5 7 5 5 10 9 2 3 3 3 1 4 5 7 7 7 9 11 12 11 11 11 10 11 11 12 14 16 17 15 12 11 14 14 12 12 13 14 13 14 14 14 14 16 18 21 23 23 21 21 22 23 24 26 25 25 29 28 24 22 26 29 30 31 30 29 30 31 31 32 33 33 34 34 33 32 33 35 37 40 42 41 37 36 38 40
Wind_Direction
30 62 51 31 22 359 3 6 338 316 298 295 308 289 268 286 22 80 86 21 347 327 261 238 248 268 271 273 271 203 169 191 219 233 246 233 211 216 222 215 209 218 227 192 257 270 261 254 243 240 247 258 271 284 290 292 291 291 294 294 297 301 301 298 294 295 298 298 300 303 304 302 299 301 303 306 311 308 309 318 328 342 356 1 1 7
48 70 56 33 24 331 330 336 317 308 307 313 307 285 282 11 341 62 76 271 2 358 274 312 311 283 272 268 259 152 152 194 210 221 235 229 217 201 203 210 202 210 222 186 240 251 243 237 233 237 248 259 270 280 284 285 287 290 290 288 292 298 299 295 292 293 293 291 296 297 296 297 299 301 301 305 307 299 301 309 317 328 347 358 359 359
56 72 55 32 6 295 272 271 302 313 324 318 284 284 334 3 325 24 89 233 350 300 288 339 326 290 279 266 220 146 169 200 182 201 227 220 221 198 184 193 184 197 275 275 260 245 221 213 211 223 241 256 267 276 279 276 279 283 283 286 294 301 301 297 291 289 291 292 292 289 292 298 302 305 304 303 304 302 302 308 314 319 333 347 351 351
84 89 39 1 320 307 277 293 336 310 294 338 336 351 18 17 354 275 282 321 314 282 285 309 298 287 288 271 152 140 151 102 120 213 284 262 256 228 149 141 156 192 245 274 283 286 241 209 206 214 229 243 248 260 276 279 276 276 278 284 291 291 291 291 288 286 287 290 290 289 295 302 304 306 304 296 294 296 300 309 315 317 324 331 333 338
94 88 346 295 269 298 300 20 19 4 76 26 19 50 68 0 337 257 299 318 310 277 273 298 305 297 275 147 164 121 59 359 235 215 261 254 256 272 328 41 193 211 228 252 275 287 279 244 231 227 230 236 237 254 275 278 271 270 275 281 286 287 288 289 288 286 284 286 290 292 298 301 299 302 304 301 303 302 298 308 315 315 317 318 320 324
78 83 310 283 257 269 300 13 39 35 49 18 349 32 94 311 299 290 306 317 339 347 295 354 17 311 288 177 179 160 155 255 197 193 240 237 225 230 245 239 222 220 222 229 249 268 286 284 274 270 261 250 250 264 273 271 273 279 282 284 286 289 293 294 293 290 288 288 289 288 289 289 289 294 299 301 306 306 300 301 303 301 306 310 314 317
82 159 229 310 296 269 260 68 50 44 31 300 261 296 331 308 293 299 315 343 40 293 290 44 80 284 306 312 118 115 199 215 173 203 234 224 213 209 212 222 215 213 212 211 225 238 249 254 255 262 265 261 264 273 274 274 282 290 291 289 288 292 297 297 295 292 290 290 290 286 284 284 283 285 292 295 294 296 294 291 291 292 297 304 310 313
80 176 209 292 308 281 234 134 0 44 62 234 225 265 308 302 287 306 327 311 240 281 333 20 71 205 291 292 24 54 279 234 217 226 228 214 214 210 202 206 205 206 197 185 205 222 228 236 241 252 262 267 270 273 277 282 290 294 294 293 292 293 297 297 296 293 290 289 287 284 278 277 279 281 288 295 294 294 292 290 294 297 298 298 301 306
280 140 223 279 248 305 227 158 2 28 82 156 180 253 314 327 295 300 308 266 264 42 6 340 27 109 271 283 310 20 3 276 248 225 214 201 205 208 202 203 205 205 192 181 197 214 224 237 245 255 264 268 270 275 282 288 293 292 292 293 291 291 293 295 295 293 291 289 285 281 274 272 276 278 282 288 292 294 292 292 297 299 300 296 292 297
228 52 320 301 318 332 180 113 27 13 184 13 24 262 279 301 281 271 271 275 326 64 254 296 355 48 280 288 283 0 10 307 293 100 99 99 136 198 193 196 204 200 196 193 205 223 235 247 253 260 267 270 276 282 286 289 291 291 291 291 291 292 293 292 292 291 290 288 283 280 277 275 277 278 278 279 281 285 286 288 293 296 298 296 289 288
110 52 286 335 39 0 38 94 92 261 275 314 320 226 197 242 243 217 245 278 27 25 246 269 322 46 296 283 216 149 185 115 79 80 91 85 73 143 163 187 204 202 204 200 207 230 242 252 258 261 264 271 281 285 283 284 288 291 293 293 295 296 293 288 287 286 286 285 281 280 279 278 280 281 279 277 277 280 281 282 286 290 291 289 283 279
154 195 283 76 14 340 356 199 170 233 286 303 279 253 88 299 284 80 312 8 68 302 250 253 330 51 209 262 174 149 156 100 77 73 82 78 71 113 151 197 214 216 220 203 203 229 245 257 263 264 265 270 278 279 275 278 284 288 292 294 297 299 297 288 283 281 281 280 279 279 278 278 280 280 276 274 276 278 278 278 281 283 283 281 276 272
196 180 158 126 37 13 312 302 310 287 253 245 292 339 36 6 356 24 338 11 94 254 235 170 2 4 224 240 178 127 120 96 89 98 102 96 53 40 42 6 338 335 340 330 273 263 262 264 268 269 271 273 277 277 273 275 277 280 288 293 297 301 301 292 283 278 276 277 278 278 277 278 279 277 275 273 274 276 275 275 276 275 275 275 272 270
302 320 183 124 60 241 313 14 16 320 311 316 342 32 55 61 30 339 327 3 357 267 250 1 349 293 262 254 171 132 134 132 110 108 126 136 104 337 343 347 332 321 313 291 271 270 267 269 275 277 279 282 284 285 282 278 275 276 285 293 297 302 303 295 286 278 274 276 279 279 278 278 277 274 274 274 275 276 275 273 272 271 270 270 271 271
42 299 298 54 341 272 339 55 150 294 314 300 175 112 98 111 122 250 313 293 275 284 297 336 324 214 247 266 162 135 138 143 126 128 136 140 228 267 305 309 299 290 283 269 259 263 267 276 284 287 290 291 292 293 290 286 281 279 286 294 297 300 300 294 287 281 278 279 281 280 278 278 276 275 275 274 276 277 276 274 271 269 268 267 270 272
122 254 292 102 258 284 25 332 259 16 320 290 57 76 89 117 138 145 140 188 205 325 308 269 235 212 190 154 115 110 115 150 151 151 147 239 232 216 282 287 284 281 283 292 293 285 287 297 303 303 302 300 299 298 294 291 288 286 290 296 297 297 297 292 287 284 282 282 282 281 279 279 277 275 273 273 275 276 276 276 272 271 270 270 271 272
60 281 249 156 271 12 47 332 52 89 278 314 32 31 248 282 98 112 21 5 99 49 285 249 276 292 343 31 65 113 123 153 151 169 207 227 205 187 256 271 271 281 311 357 333 305 300 307 313 314 312 309 307 306 304 303 301 297 297 299 298 298 296 293 291 289 287 285 283 282 281 280 279 277 276 276 276 277 278 276 274 273 273 273 273 274
117 271 254 212 333 19 38 344 302 190 180 68 66 238 251 33 78 115 17 350 37 298 286 272 288 302 335 330 299 142 149 169 162 181 209 206 167 198 256 268 271 0 14 359 334 320 316 319 321 322 322 320 317 315 313 312 310 305 303 302 302 302 302 301 299 295 291 288 286 286 285 283 282 281 281 281 281 280 278 277 276 276 276 277 278 277
146 299 294 313 0 158 44 13 318 259 164 154 214 253 106 94 68 324 87 5 344 306 295 305 321 295 241 236 232 192 197 186 164 164 149 71 56 6 332 352 23 24 2 337 329 324 322 326 326 327 329 329 328 325 321 320 319 315 314 312 309 308 310 310 307 303 299 293 289 288 288 287 285 285 285 286 284 281 278 279 280 279 279 281 281 279
92 89 287 301 4 43 5 58 218 261 245 279 327 346 33 122 167 217 143 161 184 280 300 313 332 298 240 222 188 195 201 173 151 152 118 74 40 18 18 19 10 357 331 315 315 313 318 323 325 328 331 333 336 336 335 336 336 335 332 327 322 319 318 317 316 312 309 306 301 296 294 292 290 289 288 288 286 282 281 282 283 282 282 283 282 281
64 102 255 308 2 14 294 216 195 173 157 1 54 75 13 73 137 180 120 140 151 172 292 311 304 274 257 329 60 174 179 149 144 147 126 94 42 1 353 359 348 321 302 300 302 302 310 316 322 330 334 336 340 344 349 352 352 350 344 338 334 330 328 328 327 324 319 315 312 306 302 300 297 294 291 288 285 283 283 285 284 285 286 285 284 283
93 122 233 291 297 256 236 263 349 13 70 152 143 151 169 165 122 69 338 310 93 145 189 209 284 273 270 358 40 65 87 94 107 122 126 113 32 320 307 307 303 297 291 291 295 295 301 311 321 329 334 339 342 347 354 359 359 357 352 347 342 337 337 337 336 334 328 323 318 312 309 306 301 298 293 288 285 283 284 286 287 288 287 285 286 286
107 103 246 252 229 185 199 210 307 292 268 137 158 144 78 121 136 129 195 250 296 87 139 121 253 268 274 343 45 62 67 46 49 113 152 196 259 273 279 278 267 272 275 283 293 295 301 311 317 322 329 336 342 348 353 356 357 355 353 351 347 344 344 344 342 340 336 331 326 322 318 312 308 303 297 291 288 286 286 288 289 290 287 287 289 288
38 109 216 263 248 106 201 245 273 293 333 34 262 226 149 164 138 146 171 173 167 190 156 109 255 266 276 305 338 354 106 322 295 217 203 237 268 270 265 257 258 273 285 297 299 297 305 314 316 319 326 335 344 350 352 352 350 350 349 350 349 348 348 348 345 343 340 336 332 330 326 322 319 314 306 300 296 294 294 294 293 292 290 290 290 289
307 155 124 320 332 347 343 344 327 312 272 252 258 184 176 141 106 80 99 91 332 219 182 165 239 256 268 277 258 250 195 230 256 231 207 224 258 267 258 241 256 288 304 309 306 304 310 314 314 320 331 343 351 353 353 351 348 346 346 349 351 351 350 349 346 344 343 339 335 332 330 328 326 322 318 314 310 307 306 305 302 299 296 294 292 292
262 212 146 148 222 266 257 228 222 78 207 237 193 158 184 163 148 147 83 106 243 225 178 179 236 261 288 288 262 263 278 292 280 253 199 210 245 265 271 271 295 307 302 296 295 300 304 303 308 327 342 349 353 354 354 353 348 345 347 353 356 353 350 349 348 345 342 338 334 331 330 331 330 328 325 323 320 317 314 313 309 305 301 298 295 294
47 316 222 203 216 214 194 210 213 129 161 205 189 187 199 202 195 171 106 181 208 213 210 220 239 270 284 279 275 283 301 314 317 327 340 316 293 295 297 297 303 295 283 278 284 291 297 303 315 337 348 351 356 2 2 358 353 349 350 353 353 352 352 352 346 339 337 335 333 331 332 333 332 330 328 326 324 321 318 316 314 310 307 303 299 296
61 291 244 217 237 242 242 253 202 165 214 221 213 210 198 196 194 179 201 218 178 166 251 234 220 257 272 274 277 283 296 318 321 315 314 317 312 299 293 302 315 304 299 304 303 292 305 326 332 346 356 1 7 9 6 1 357 352 348 346 348 350 351 348 341 336 335 335 334 334 335 335 333 330 328 327 325 323 321 320 318 316 313 309 304 300
127 261 261 185 264 276 287 274 219 188 224 227 221 220 199 192 193 194 219 228 192 212 252 258 279 278 274 276 280 288 302 309 297 289 294 300 288 278 281 318 321 309 312 318 313 310 344 351 346 359 9 12 12 8 3 1 357 349 344 343 345 348 347 344 341 339 337 336 336 337 337 336 334 333 331 330 328 326 324 323 321 319 316 312 308 304
151 233 260 110 289 286 277 272 243 211 239 253 244 233 210 208 208 207 227 234 224 245 259 269 285 284 276 275 282 295 299 288 277 283 292 283 261 246 241 259 285 295 305 305 301 319 356 1 7 21 23 17 10 2 358 357 353 347 344 344 345 346 345 344 342 341 339 338 338 339 339 338 337 335 333 333 331 330 328 326 324 321 318 316 312 309
266 221 156 98 324 294 288 339 65 194 218 250 258 246 223 224 224 222 237 236 228 250 260 268 281 277 272 274 282 284 278 276 282 284 281 271 242 210 225 248 268 292 297 294 299 335 6 18 26 32 26 12 2 358 357 354 350 348 347 346 346 345 345 345 343 342 341 340 342 343 343 342 340 337 335 335 333 332 330 327 326 323 321 320 318 316
189 229 47 78 344 287 316 11 283 238 239 252 264 255 231 222 217 215 224 213 201 224 247 267 268 258 263 279 288 263 248 252 268 271 277 283 281 281 282 284 291 288 284 292 321 4 25 33 34 25 11 2 359 360 357 353 351 351 349 348 346 345 346 347 346 344 343 344 346 348 348 346 344 340 338 337 336 334 332 330 327 326 325 323 322 322
175 202 259 112 196 275 291 276 260 318 324 274 256 239 215 208 214 223 235 224 208 201 203 221 233 243 266 298 290 279 275 269 270 274 282 286 290 298 297 277 279 278 277 319 16 39 44 36 25 10 1 359 359 357 355 354 354 352 351 349 348 348 349 350 349 347 348 350 351 351 351 349 345 342 339 338 337 335 334 333 331 330 329 327 326 324
172 177 250 166 171 262 264 267 305 339 301 267 234 195 180 187 201 212 232 233 215 198 206 231 246 265 285 280 267 278 286 279 278 278 271 266 266 280 290 280 274 281 330 40 49 50 42 28 15 5 2 -0 357 355 356 358 357 353 351 351 352 354 354 352 352 353 355 356 355 353 352 349 345 342 339 338 337 336 335 335 333 333 332 330 329 326
159 158 253 221 189 258 300 351 338 278 250 259 263 234 200 170 180 197 236 248 227 217 231 246 256 261 267 267 259 261 268 277 298 294 282 275 250 228 246 264 275 352 40 44 43 35 31 26 15 8 6 0 355 356 2 4 0 355 353 356 359 359 357 356 359 2 1 359 356 353 351 348 345 342 340 339 338 338 337 336 334 333 332 331 328 325
157 170 216 204 189 274 14 80 232 258 276 284 277 254 111 75 119 169 264 268 243 222 225 236 248 254 258 264 263 256 258 298 333 291 274 272 245 197 195 218 157 78 69 56 49 41 31 22 13 7 1 357 359 6 11 9 2 357 359 4 4 2 4 8 10 8 4 360 355 351 348 346 344 342 341 340 340 339 338 336 334 333 332 330 327 325
120 173 203 203 195 196 220 231 245 303 309 293 272 231 157 164 154 151 235 272 257 240 219 216 239 251 249 257 265 255 170 28 349 302 292 296 147 129 126 121 95 78 65 53 47 44 33 19 11 8 5 8 15 18 14 8 4 6 10 12 11 13 18 19 15 8 2 356 351 348 346 345 344 342 341 341 340 339 338 336 335 334 333 331 328 326
17 193 160 171 224 173 196 282 295 306 282 260 253 251 208 171 164 148 137 282 266 257 221 192 218 240 243 254 263 131 89 32 325 291 313 72 93 88 71 69 70 62 51 46 44 39 31 22 18 17 19 23 23 18 14 13 15 20 20 20 22 26 24 19 11 3 357 351 347 345 344 343 342 341 340 340 339 338 337 336 335 334 333 332 328 326
21 342 97 108 279 146 151 235 240 229 242 243 248 252 202 153 152 103 25 307 276 280 223 174 198 233 238 233 175 120 81 345 302 268 194 89 65 56 57 56 54 52 49 48 44 36 29 25 24 27 28 27 21 17 17 21 25 28 29 30 31 28 21 13 5 358 352 347 344 343 342 342 341 340 339 338 338 338 337 335 335 334 333 332 328 326
76 356 111 185 240 192 175 236 243 239 252 243 232 223 173 157 132 69 348 281 265 311 77 146 171 239 232 197 139 127 206 281 294 275 145 88 58 59 68 60 53 53 52 46 38 33 31 29 29 31 29 23 20 20 22 27 34 36 34 33 30 24 15 7 360 354 349 346 344 343 343 343 341 340 339 339 338 337 336 335 335 334 333 330 328 325
118 219 188 198 231 211 204 245 263 265 253 234 213 188 166 145 92 87 248 241 214 234 223 145 158 246 230 184 164 193 241 263 348 25 61 64 55 55 57 55 55 57 53 44 35 33 33 32 32 31 25 21 22 25 27 35 41 39 35 32 27 19 10 3 358 354 351 348 346 346 345 345 343 341 340 341 339 336 336 337 337 335 332 330 328 326
167 195 180 175 212 212 210 240 285 288 251 210 160 145 151 150 196 220 228 216 127 146 233 206 219 257 276 269 256 269 301 334 8 15 25 44 54 55 51 49 51 50 45 37 33 33 32 32 32 28 22 22 28 27 30 41 43 37 34 31 23 12 5 1 359 356 353 351 350 349 348 347 345 342 340 340 338 336 337 339 338 336 335 333 331 329
171 164 181 187 187 186 201 218 279 286 247 163 126 107 150 189 205 219 269 337 69 73 0 317 277 281 325 328 330 355 358 355 9 27 44 53 56 56 51 49 51 49 42 34 29 28 29 30 29 24 19 25 30 28 32 42 40 35 33 27 15 6 3 2 360 357 355 354 352 351 350 349 347 344 341 339 338 336 337 339 339 338 337 336 334 332
182 165 180 203 186 163 179 203 217 236 217 159 148 170 209 216 225 335 24 338 329 0 337 315 327 5 27 25 13 12 16 20 30 46 57 55 50 51 51 50 50 49 43 36 28 26 28 27 24 22 20 24 28 27 31 36 34 32 29 18 7 3 2 0 359 357 355 354 352 349 348 347 347 345 342 339 336 334 335 337 336 335 335 335 333 330
211 182 169 201 202 191 201 214 214 211 189 187 203 219 220 229 252 359 4 298 289 319 345 355 8 24 37 41 40 40 39 41 48 55 57 55 51 49 49 50 51 49 43 36 30 27 27 25 22 20 16 19 26 26 25 26 25 23 17 7 2 1 360 358 358 356 354 352 350 347 346 345 344 343 341 339 336 332 331 332 332 331 331 331 330 327
231 187 105 203 238 259 258 233 213 213 207 208 227 251 267 275 301 333 319 307 328 11 30 42 42 37 37 44 59 60 43 40 54 58 56 55 52 48 49 52 53 50 44 37 31 28 27 25 24 20 14 16 23 23 17 15 14 11 4 359 357 358 357 357 357 354 352 350 348 345 344 343 341 340 339 337 335 330 327 327 327 326 327 327 327 326
233 193 185 225 241 272 272 227 190 224 238 219 233 277 297 312 331 346 346 3 39 48 47 48 50 47 42 46 63 65 45 41 54 58 55 54 50 48 49 51 51 47 41 35 29 26 25 24 22 19 15 14 16 14 9 6 4 0 354 351 351 352 352 354 354 352 350 348 345 343 342 340 338 336 335 334 332 328 324 323 323 323 323 324 325 324
199 174 186 227 234 236 250 251 250 280 272 269 344 336 338 358 20 38 43 47 60 65 59 51 48 48 45 43 54 62 54 46 51 57 57 53 49 46 45 45 45 42 35 30 26 23 23 20 16 15 13 12 10 6 3 0 358 354 348 345 346 349 350 351 351 349 347 345 342 340 339 337 335 334 331 329 328 326 323 321 321 320 318 318 321 321
124 159 182 225 245 254 265 272 284 284 282 320 31 21 18 27 43 55 53 49 55 63 65 61 54 50 48 42 43 58 60 51 51 60 62 56 50 48 44 42 43 40 35 30 25 22 20 16 11 10 10 8 5 1 358 356 354 351 346 342 344 350 352 351 349 348 346 344 341 338 336 334 333 332 329 327 326 325 323 320 319 317 313 312 313 314
141 203 185 189 249 261 273 270 253 269 278 33 38 22 21 37 58 63 56 51 51 52 60 69 63 56 52 46 41 51 58 51 50 61 68 67 60 53 47 43 41 37 34 30 25 22 19 14 10 10 8 4 360 356 354 351 349 348 347 345 349 354 355 352 349 346 345 343 339 336 335 332 331 330 328 326 325 324 321 318 316 313 308 307 309 310
200 224 201 211 247 260 322 18 315 305 44 79 46 29 29 42 60 66 60 58 59 55 58 70 70 63 58 50 45 49 53 49 48 53 59 60 56 52 48 44 38 33 29 26 25 21 14 8 9 11 8 2 356 352 350 347 344 345 350 354 355 356 356 354 351 346 342 340 337 334 333 330 328 327 326 323 322 321 318 317 315 313 309 307 308 310